Location: Zagreb
(45.8000°N, 16.0000°E)
Time: 19:23:00
(UTC+02:00)

A-11 Canister half - Pass Details

Date: 10 August 2022
Orbit: 1524 x 1684 km, 47.3° (Epoch: 05 October)

Event Time Altitude Azimuth Distance (km) Brightness Sun altitude
Rises 06:55:19 0° 231° (SW) 4,908 11.1 10.0°
Reaches altitude 10° 06:58:29 10° 229° (SW) 3,932 10.7 10.6°
Maximum altitude 07:08:27 66° 150° (SSE) 1,815 9.8 12.3°
Drops below altitude 10° 07:18:25 10° 71° (ENE) 3,927 13.5 14.0°
Sets 07:21:35 0° 69° (ENE) 4,902 13.3 14.6°
